TimeEST,TemperatureF,Dew PointF,Humidity,Sea Level PressureIn,VisibilityMPH,Wind Direction,Wind SpeedMPH,Gust SpeedMPH,PrecipitationIn,Events,Conditions,WindDirDegrees,DateUTC
12:15 AM,37.4,33.8,87,30.07,10.0,Calm,Calm,-,N/A,,Clear,0,2012-11-04 04:15:00
12:35 AM,37.4,33.8,87,30.09,10.0,Calm,Calm,-,N/A,,Clear,0,2012-11-04 04:35:00
12:55 AM,42.8,33.8,70,30.09,10.0,NNE,4.6,-,N/A,,Scattered Clouds,30,2012-11-04 04:55:00
1:15 AM,41.0,35.6,81,30.08,10.0,NNE,3.5,-,N/A,,Mostly Cloudy,30,2012-11-04 05:15:00
1:35 AM,41.0,35.6,81,30.08,10.0,Calm,Calm,-,N/A,,Scattered Clouds,0,2012-11-04 05:35:00
1:55 AM,42.8,35.6,76,30.09,10.0,Calm,Calm,-,N/A,,Scattered Clouds,0,2012-11-04 05:55:00
1:15 AM,42.8,35.6,76,30.09,10.0,Calm,Calm,-,N/A,,Mostly Cloudy,0,2012-11-04 06:15:00
1:35 AM,42.8,35.6,76,30.07,10.0,Calm,Calm,-,N/A,,Mostly Cloudy,0,2012-11-04 06:35:00
1:55 AM,44.6,33.8,66,30.06,10.0,ENE,4.6,-,N/A,,Scattered Clouds,60,2012-11-04 06:55:00
2:15 AM,42.8,35.6,76,30.06,10.0,NE,4.6,-,N/A,,Scattered Clouds,40,2012-11-04 07:15:00
2:35 AM,44.6,33.8,66,30.05,10.0,ENE,4.6,-,N/A,,Clear,70,2012-11-04 07:35:00
2:55 AM,44.6,33.8,66,30.05,10.0,East,4.6,-,N/A,,Clear,80,2012-11-04 07:55:00
3:15 AM,44.6,33.8,66,30.04,10.0,East,4.6,-,N/A,,Clear,80,2012-11-04 08:15:00
3:35 AM,44.6,33.8,66,30.04,10.0,ENE,5.8,-,N/A,,Clear,60,2012-11-04 08:35:00
3:55 AM,44.6,33.8,66,30.04,10.0,Calm,Calm,-,N/A,,Clear,0,2012-11-04 08:55:00
4:15 AM,44.6,33.8,66,30.05,10.0,ENE,3.5,-,N/A,,Mostly Cloudy,70,2012-11-04 09:15:00
4:35 AM,44.6,33.8,66,30.03,10.0,East,3.5,-,N/A,,Scattered Clouds,80,2012-11-04 09:35:00
4:55 AM,44.6,33.8,66,30.03,10.0,NE,5.8,-,N/A,,Clear,50,2012-11-04 09:55:00
5:15 AM,44.6,33.8,66,30.03,10.0,ENE,5.8,-,N/A,,Clear,60,2012-11-04 10:15:00
5:35 AM,44.6,33.8,66,30.02,10.0,NE,8.1,-,N/A,,Clear,50,2012-11-04 10:35:00
5:55 AM,44.6,33.8,66,30.02,10.0,ENE,8.1,-,N/A,,Clear,60,2012-11-04 10:55:00
6:15 AM,44.6,33.8,66,30.02,10.0,NE,6.9,-,N/A,,Scattered Clouds,50,2012-11-04 11:15:00
6:35 AM,44.6,35.6,71,30.03,10.0,NNE,5.8,-,N/A,,Mostly Cloudy,30,2012-11-04 11:35:00
6:55 AM,42.8,35.6,76,30.02,10.0,ENE,6.9,-,N/A,,Scattered Clouds,60,2012-11-04 11:55:00
7:15 AM,44.6,35.6,71,30.03,10.0,North,5.8,-,N/A,,Clear,360,2012-11-04 12:15:00
7:35 AM,44.6,35.6,71,30.02,10.0,NE,8.1,-,N/A,,Clear,50,2012-11-04 12:35:00
7:55 AM,44.6,35.6,71,30.03,10.0,NE,6.9,-,N/A,,Clear,40,2012-11-04 12:55:00
8:15 AM,46.4,37.4,71,30.02,10.0,ENE,8.1,-,N/A,,Clear,70,2012-11-04 13:15:00
8:35 AM,48.2,37.4,66,30.02,10.0,NNE,5.8,-,N/A,,Clear,30,2012-11-04 13:35:00
8:55 AM,48.2,37.4,66,30.03,10.0,NNE,6.9,-,N/A,,Mostly Cloudy,30,2012-11-04 13:55:00
9:35 AM,50.0,37.4,62,30.02,10.0,North,4.6,-,N/A,,Overcast,10,2012-11-04 14:35:00
9:55 AM,51.8,37.4,58,30.02,10.0,NNE,5.8,-,N/A,,Overcast,20,2012-11-04 14:55:00
10:15 AM,53.6,37.4,54,30.00,10.0,NE,8.1,-,N/A,,Overcast,50,2012-11-04 15:15:00
10:35 AM,53.6,37.4,54,30.00,10.0,NE,6.9,-,N/A,,Scattered Clouds,40,2012-11-04 15:35:00
10:55 AM,53.6,37.4,54,30.01,10.0,ENE,6.9,-,N/A,,Mostly Cloudy,70,2012-11-04 15:55:00
11:15 AM,55.4,39.2,54,30.01,10.0,NNE,5.8,-,N/A,,Overcast,20,2012-11-04 16:15:00
11:35 AM,57.2,39.2,51,30.00,10.0,North,8.1,-,N/A,,Overcast,360,2012-11-04 16:35:00
11:55 AM,55.4,39.2,54,30.00,10.0,North,5.8,-,N/A,,Mostly Cloudy,350,2012-11-04 16:55:00
12:15 PM,57.2,39.2,51,29.99,10.0,NNE,4.6,-,N/A,,Overcast,20,2012-11-04 17:15:00
12:35 PM,59.0,41.0,51,29.98,10.0,NE,8.1,-,N/A,,Overcast,50,2012-11-04 17:35:00
12:55 PM,57.2,39.2,51,29.98,10.0,NE,8.1,-,N/A,,Scattered Clouds,40,2012-11-04 17:55:00
1:15 PM,59.0,41.0,51,29.98,10.0,NE,9.2,-,N/A,,Scattered Clouds,50,2012-11-04 18:15:00
1:55 PM,57.2,41.0,55,29.97,10.0,North,4.6,-,N/A,,Overcast,360,2012-11-04 18:55:00
2:15 PM,59.0,41.0,51,29.97,10.0,North,6.9,-,N/A,,Overcast,10,2012-11-04 19:15:00
2:35 PM,57.2,41.0,55,29.97,10.0,North,4.6,-,N/A,,Mostly Cloudy,360,2012-11-04 19:35:00
2:55 PM,57.2,41.0,55,29.97,10.0,NNE,4.6,-,N/A,,Scattered Clouds,30,2012-11-04 19:55:00
3:15 PM,59.0,41.0,51,29.97,10.0,NNE,3.5,-,N/A,,Scattered Clouds,20,2012-11-04 20:15:00
3:35 PM,57.2,39.2,51,29.98,10.0,North,3.5,-,N/A,,Mostly Cloudy,360,2012-11-04 20:35:00
3:55 PM,55.4,39.2,54,29.99,10.0,NNE,3.5,-,N/A,,Overcast,20,2012-11-04 20:55:00
4:15 PM,55.4,39.2,54,29.98,10.0,North,5.8,-,N/A,,Overcast,10,2012-11-04 21:15:00
4:35 PM,55.4,39.2,54,29.99,10.0,NE,3.5,-,N/A,,Overcast,40,2012-11-04 21:35:00
4:55 PM,55.4,39.2,54,29.98,10.0,NE,4.6,-,N/A,,Mostly Cloudy,50,2012-11-04 21:55:00
5:15 PM,53.6,39.2,58,29.98,10.0,NNE,4.6,-,N/A,,Scattered Clouds,30,2012-11-04 22:15:00
5:35 PM,53.6,39.2,58,29.99,10.0,Calm,Calm,-,N/A,,Clear,0,2012-11-04 22:35:00
5:55 PM,53.6,41.0,62,29.99,10.0,Calm,Calm,-,N/A,,Mostly Cloudy,0,2012-11-04 22:55:00
6:15 PM,51.8,39.2,62,29.99,10.0,NNE,6.9,-,N/A,,Overcast,20,2012-11-04 23:15:00
6:35 PM,51.8,39.2,62,30.00,10.0,NE,6.9,-,N/A,,Mostly Cloudy,40,2012-11-04 23:35:00
6:55 PM,51.8,39.2,62,30.00,10.0,NNE,6.9,-,N/A,,Clear,20,2012-11-04 23:55:00
7:15 PM,51.8,39.2,62,30.00,10.0,NE,5.8,-,N/A,,Scattered Clouds,40,2012-11-05 00:15:00
7:55 PM,51.8,39.2,62,30.00,10.0,NE,5.8,-,N/A,,Mostly Cloudy,40,2012-11-05 00:55:00
8:15 PM,50.0,39.2,66,30.00,10.0,NNE,5.8,-,N/A,,Overcast,30,2012-11-05 01:15:00
8:35 PM,50.0,39.2,66,30.00,10.0,NNE,4.6,-,N/A,,Overcast,20,2012-11-05 01:35:00
8:55 PM,50.0,37.4,62,30.02,10.0,Calm,Calm,-,N/A,,Overcast,0,2012-11-05 01:55:00
9:15 PM,50.0,41.0,71,30.02,10.0,Calm,Calm,-,N/A,Rain,Light Rain,0,2012-11-05 02:15:00
9:35 PM,48.2,42.8,82,30.02,10.0,Calm,Calm,-,0.01,Rain,Light Rain,0,2012-11-05 02:35:00
9:55 PM,48.2,42.8,82,30.02,10.0,Calm,Calm,-,0.01,,Light Drizzle,0,2012-11-05 02:55:00
10:15 PM,48.2,42.8,82,30.01,10.0,NE,3.5,-,N/A,,Overcast,50,2012-11-05 03:15:00
10:35 PM,46.4,42.8,87,30.00,10.0,NNE,3.5,-,N/A,,Overcast,30,2012-11-05 03:35:00
10:55 PM,46.4,41.0,81,30.01,10.0,ENE,3.5,-,N/A,,Overcast,60,2012-11-05 03:55:00